Location: McNierney
(34.1937°N, 106.9061°W)
Time: 23:00:15
(UTC+00:00)

Cosmos 1892 Rocket - Visible Passes

Search period start: 14 March 2026 00:00
Search period end: 24 March 2026 00:00
Orbit: 599 x 626 km, 82.5° (Epoch: 14 March)

Date Brightness Start Highest point End Pass type
(mag) Time Alt. Az. Time Alt. Az. Time Alt. Az.
14 Mar 5.5 10:44:00 10° NNE 10:47:50 28° ENE 10:51:38 10° SE visible
14 Mar 4.9 12:22:11 10° NW 12:25:18 19° W 12:28:26 10° SW visible
15 Mar 4.4 10:58:51 10° N 11:02:35 48° NE 11:02:35 48° NE visible
16 Mar 5.1 11:14:01 10° N 11:15:56 25° N 11:15:56 25° N visible
17 Mar 5.8 11:29:28 10° NNW 11:30:01 13° NNW 11:30:01 13° NNW visible
